Find Starlink 4493

NORAD ID: 53533 Int'l Des: 2022-101 Owner: SPXS Country: US Constellation: starlink operational
LEOCIRCULAR

リアルタイム位置

3D地球を読み込み中...

Starlink 4493について

説明を読み込み中...

次回通過

Passes for default location (London). Set your location on the main map for personalized predictions.

高度履歴

Loading altitude history...

軌道要素

1 53533U 22101G 26124.17464314 .00001264 00000-0 97497-4 0 9993
2 53533 53.2161 185.0259 0001126 84.9492 275.1629 15.08836931204546
Epoch: May 4, 2026 • Age: 8 hours

現在のステータス

高度 545.6 km
速度 7.60 km/s
衛星直下点 53.34°N, 134.75°W
打ち上げ日 Aug 19, 2022
運用期間 3.7 years
タイプ internet

技術仕様

分類 Payload
質量 300.00 kg
乾燥質量 290.00 kg
総質量 300.00 kg
長さ 0.20 m
直径 2.80 m
スパン 9.00 m
形状 Box + pan
製造者 SPXS
バスタイプ Starlink
フェーズステータス In Orbit
所有者/国 SPXS/US

Most Searched